Weather in Mikhaylov

Russia / Rostov Oblast     48°14′31″N   41°10′32″E
temp.,
°C
wind,
m/s
gust,
m/s
humid.,
%
clouds,
%
prec.,
mm/h
press.,
hPa
HPBL,
m
9 may, sun
sun900:00+15s41185100 0.2 1008212
03:00+13w2596100 1.8 1008140
06:00+11nw61095100 5.1 1009499
09:00+7nnw81493100 14.8 1011628
12:00+7nnw81391100 4.8 1013777
15:00+9nnw71178100 5.4 10151069
18:00+8nnw81282100 1.4 1017977
21:00+7nnw51183100 1.6 1019646
10 may, mon
mon1000:00+6nw61280100 0.0 1019540
03:00+6wnw61186100 0.0 1019422
06:00+6nw71282100 0.0 1019684
09:00+6nw6990100 0.6 1018961
12:00+6wnw6993100 3.3 1017860
15:00+7wnw51093100 4.4 1015696
18:00+7wnw4897100 4.1 1012467
21:00+7sw5798100 12.6 1009316
11 may, tue
tue1100:00+7se5897100 2.1 1011438
03:00+6ese5895100 2.1 1012514
06:00+6e5893100 0.1 1014995
09:00+7ese91291100 0.4 10151202
12:00+6se71692100 0.9 10181143
15:00+9se81589100 5.1 10191277
18:00+8s4895100 3.1 1021522
21:00+7sse399277 4.0 1022319
12 may, wed
wed1200:00+6e339334 0.0 102233
03:00+7ne359281 0.0 1020110
06:00+7ese412906 0.0 1020281
09:00+14ese71065100 0.0 1020746
12:00+17ese7853100 0.0 10201554
15:00+17ese4760100 0.0 10191354
18:00+17ese3663100 0.0 1019233
21:00+12ese33680 0.0 101818
13 may, thu
thu1300:00+11e22680 0.0 101714
03:00+10e22725 0.0 101713
06:00+11ese23750 0.0 101764
09:00+18se455818 0.0 1017603
12:00+22se5548100 0.0 10171189
15:00+23se66476 0.0 10161181
18:00+21ese486369 0.0 1016268
21:00+17ese4974100 0.0 1016143